This demonstration page uses our WeatherBlox Daily Observations layout. Learn more.

Left ArrowRight Arrow

47.50024, -111.30081

Hourly Observations for June 22, 2020

Temp ( °F °C ) Dew Point ( °F °C ) Humidity (%) Winds ( mph kmh ) Pressure ( in mb ) Visibility ( mi km ) Precip ( " mm )
12:53 am 00:53 Mostly Cloudy 59 15 48 8.9 67 67 S 6 9 30.00 1016 10 16 0.00 0.00
1:53 am 01:53 Clear 54 12.2 47 8.3 77 77 S 6 9 30.01 1016 10 16 0.00 0.00
2:53 am 02:53 Clear 50 10 46 7.8 86 86 SW 9 15 30.03 1017 10 16 0.00 0.00
3:53 am 03:53 Clear 52 11.1 47 8.3 83 83 SSW 10 17 30.01 1016 10 16 0.00 0.00
4:53 am 04:53 Clear 52 11.1 47 8.3 83 83 SW 12 19 30.01 1016 10 16 0.00 0.00
5:53 am 05:53 Sunny 50 10 46 7.8 86 86 SW 9 15 30.04 1017 10 16 0.00 0.00
6:53 am 06:53 Sunny 54 12.2 48 8.9 80 80 SSW 9 15 30.05 1018 10 16 0.00 0.00
7:53 am 07:53 Sunny 59 15 48 8.9 67 67 SW 9 15 30.07 1018 10 16 0.00 0.00
8:53 am 08:53 Sunny 64 17.8 49 9.4 58 58 SW 9 15 30.08 1019 10 16 0.00 0.00
9:53 am 09:53 Sunny 67 19.4 48 8.9 51 51 W 6 9 30.09 1019 10 16 0.00 0.00
10:53 am 10:53 Sunny 70 21.1 45 7.2 41 41 VRB 5 7 30.09 1019 10 16 0.00 0.00
11:53 am 11:53 Sunny 72 22.2 46 7.8 40 40 VRB 7 11 30.08 1019 10 16 0.00 0.00
12:53 pm 12:53 Sunny 73 22.8 46 7.8 38 38 SW 7 11 30.08 1019 10 16 0.00 0.00
1:53 pm 13:53 Mostly Sunny 76 24.4 47 8.3 36 36 WSW 10 17 30.07 1018 10 16 0.00 0.00
2:53 pm 14:53 Partly Cloudy 76 24.4 44 6.7 32 32 SW 7 11 30.07 1018 10 16 0.00 0.00
3:53 pm 15:53 Partly Cloudy 77 25 45 7.2 32 32 SW 8 13 30.06 1018 10 16 0.00 0.00
4:53 pm 16:53 Mostly Sunny 78 25.6 44 6.7 30 30 W 8 13 30.06 1018 10 16 0.00 0.00
5:53 pm 17:53 Sunny 78 25.6 44 6.7 30 30 VRB 3 6 30.05 1018 10 16 0.00 0.00
6:53 pm 18:53 Mostly Sunny 78 25.6 45 7.2 31 31 NW 5 7 30.04 1017 10 16 0.00 0.00
7:53 pm 19:53 Sunny 75 23.9 47 8.3 37 37 SW 5 7 30.04 1017 10 16 0.00 0.00
8:53 pm 20:53 Sunny 72 22.2 48 8.9 43 43 S 6 9 30.03 1017 10 16 0.00 0.00
9:53 pm 21:53 Clear 66 18.9 48 8.9 52 52 S 7 11 30.04 1017 10 16 0.00 0.00
10:53 pm 22:53 Clear 64 17.8 48 8.9 56 56 SSW 6 9 30.04 1017 10 16 0.00 0.00
11:53 pm 23:53 Clear 57 13.9 48 8.9 72 72 WNW 6 9 30.06 1018 10 16 0.00 0.00

Powered by AerisWeather